User: anonymous   Login
Location: Unspecified
(0.0000°N, 0.0000°E)
Time: 08:40:41
(UTC+02:00)
Language:

ITAMSAT 1 - Orbit

View from above orbital plane
View from above orbital plane
View from above satellite
View from above satellite

Ground track
Ground track

The orbit data is extracted from the following two-line orbital elements,

1 22826U 93061D   14295.09640679  .00000353  00000-0  15400-3 0  5597
2 22826 098.6712 240.7786 0007805 278.3822 081.6475 14.30069271 99058
Epoch (UTC): 22 October 2014 02:18:49
Eccentricity: 0.0007805
inclination: 98.6712°
perigee height: 786 km
apogee height: 797 km
right ascension of ascending node: 240.7786°
argument of perigee: 278.3822°
revolutions per day: 14.30069271
mean anomaly at epoch: 81.6475°
orbit number at epoch: 9905

The dashed part of the orbit path shows where the satellite is in the earth's shadow,  

DLR